{"data":{"norad_id":58138,"intl_designator":"2023-162W","name":"STARLINK-30769","alt_names":[],"object_type":"PAYLOAD","status":"ACTIVE","operator":null,"country":"US","launch_date":"2023-10-22","launch_site_code":"AFETR","launch_vehicle":null,"mission":null,"orbit_class":"UNKNOWN","rcs_meters":null,"size_class":null,"mass_kg":null,"dimensions":null,"purposes":["comms"],"wikipedia_slug":null,"has_3d_model":false,"image_url":null,"decayed_at":null,"tle_current":{"epoch":"2026-05-24T22:48:23.702112Z","epoch_age_seconds":75370,"freshness":"FRESH","line1":"1 58138U 23162W   26144.95027433  .00000787  00000+0  38156-4 0  9997","line2":"2 58138  43.0069  61.5018 0002010 261.9980  98.0644 15.27569775143977","mean_motion":15.27569775,"eccentricity":0.000201,"inclination_deg":43.0069,"raan_deg":61.5018,"arg_perigee_deg":261.998,"mean_anomaly_deg":98.0644,"bstar":3.8156e-5,"rev_number":14397,"period_min":94.267379701199,"perigee_km":481.70060897944,"apogee_km":484.45881809828,"semimajor_km":6861.2167135389,"source":"CELESTRAK","updated_at":"2026-05-25T13:38:18.535142Z"}}}